Weather History for Spirit of St Louis, MO

Change the Weather History Date:

Thursday, November 29, 2012

  Actual Average Record
Temperature  
Mean Temperature 44 °F -  
Max Temperature 62 °F 49 °F 75 °F (1998)
Min Temperature 26 °F 31 °F 17 °F (2013)
Degree Days  
Heating Degree Days 21    
Moisture  
Dew Point 28 °F    
Average Humidity 56    
Maximum Humidity 89    
Minimum Humidity 30    
Precipitation  
Precipitation 0.00 in - - ()
Sea Level Pressure  
Sea Level Pressure 30.19 in    
Wind  
Wind Speed 2 mph (South)    
Max Wind Speed 10 mph    
Max Gust Speed 16 mph    
Visibility 10 miles    
Events      
Averages and records for this station are not official NWS values.
T = Trace of Precipitation, MM = Missing Value Source: NWS Daily Summary

Daily Weather History Graph

Daily Weather History Graph

Search for Another Location

Airport:

Trip Planner

Search our weather history database for the weather conditions in past years. The results will help you decide how hot, cold, wet, or windy it might be!

Date:

Astronomy

Nov. 29, 2012 Rise Set
Actual Time 7:00 AM CST 4:41 PM CST
Civil Twilight 6:30 AM CST 5:11 PM CST
Nautical Twilight 5:58 AM CST 5:44 PM CST
Astronomical Twilight 5:26 AM CST 6:16 PM CST
Moon 5:45 PM CST (11/29) 7:46 AM CST (11/29)
Length of Visible Light 10h 40m
Length of Day
9h 41m
Full, 99% of the Moon is Illuminated
Nov 29
Full
Dec 6
Last Quarter
Dec 13
New
Dec 19
First Quarter
Dec 28
Full

Hourly Weather History & Observations

Time (CST) Temp. Dew Point Humidity Pressure Visibility Wind Dir Wind Speed Gust Speed Precip Events Conditions
12:54 AM 30.0 °F 23.0 °F 75% 30.30 in 10.0 mi Calm Calm - N/A   Clear
1:54 AM 28.0 °F 23.0 °F 81% 30.30 in 10.0 mi Calm Calm - N/A   Clear
2:54 AM 28.9 °F 24.1 °F 82% 30.30 in 10.0 mi Calm Calm - N/A   Clear
3:54 AM 27.0 °F 21.9 °F 81% 30.28 in 10.0 mi Calm Calm - N/A   Clear
4:54 AM 26.1 °F 21.9 °F 84% 30.29 in 10.0 mi Calm Calm - N/A   Clear
5:54 AM 26.1 °F 21.9 °F 84% 30.29 in 10.0 mi Calm Calm - N/A   Clear
6:54 AM 27.0 °F 24.1 °F 89% 30.27 in 10.0 mi Calm Calm - N/A   Mostly Cloudy
7:54 AM 28.0 °F 25.0 °F 88% 30.28 in 10.0 mi Calm Calm - N/A   Mostly Cloudy
8:54 AM 41.0 °F 30.9 °F 67% 30.26 in 10.0 mi Calm Calm - N/A   Clear
9:54 AM 48.0 °F 32.0 °F 54% 30.25 in 10.0 mi SSW 4.6 mph - N/A   Scattered Clouds
10:54 AM 53.1 °F 33.1 °F 47% 30.22 in 10.0 mi SSE 5.8 mph - N/A   Mostly Cloudy
11:54 AM 57.9 °F 33.1 °F 39% 30.17 in 10.0 mi SSE 8.1 mph - N/A   Mostly Cloudy
12:54 PM 61.0 °F 32.0 °F 34% 30.13 in 10.0 mi Variable 4.6 mph - N/A   Mostly Cloudy
1:54 PM 62.1 °F 30.0 °F 30% 30.11 in 10.0 mi South 8.1 mph - N/A   Mostly Cloudy
2:54 PM 61.0 °F 30.9 °F 32% 30.09 in 10.0 mi South 10.4 mph 16.1 mph N/A   Overcast
3:54 PM 60.1 °F 28.9 °F 31% 30.10 in 10.0 mi South 5.8 mph - N/A   Mostly Cloudy
4:54 PM 57.0 °F 28.9 °F 34% 30.11 in 10.0 mi SSE 3.5 mph - N/A   Clear
5:54 PM 55.9 °F 26.1 °F 32% 30.12 in 10.0 mi South 5.8 mph - N/A   Clear
6:54 PM 54.0 °F 26.1 °F 34% 30.12 in 10.0 mi South 6.9 mph - N/A   Mostly Cloudy
7:54 PM 53.1 °F 27.0 °F 37% 30.12 in 10.0 mi South 5.8 mph - N/A   Clear
8:54 PM 51.1 °F 28.9 °F 43% 30.10 in 10.0 mi South 6.9 mph - N/A   Clear
9:54 PM 48.9 °F 30.0 °F 48% 30.10 in 10.0 mi SSW 6.9 mph - N/A   Clear
10:54 PM 46.9 °F 30.9 °F 54% 30.11 in 10.0 mi SSW 4.6 mph - N/A   Clear
11:54 PM 46.9 °F 30.9 °F 54% 30.11 in 10.0 mi Calm Calm - N/A   Clear